Location: Newark
(40.7060°N, 73.9980°W)
Time: 19:08:31
(UTC+00:00)

X-37B - Pass Details

Date: 16 March 2021
Orbit: 380 x 394 km, 45.0° (Epoch: 07 April)

Event Time Altitude Azimuth Distance (km) Brightness Sun altitude
Rises 00:45:11 0° 276° (W) 2,270 6.0 -20.0°
Reaches altitude 10° 00:47:20 10° 285° (WNW) 1,418 4.6 -20.3°
Maximum altitude 00:50:20 37° 355° (N) 630 1.7 -20.9°
Enters shadow 00:50:21 37° 356° (N) 630 1.7 -20.9°
